Voltar ao catálogo

STARLINK-35586

AtivoComunicaçõesVLEO
NORAD 66159·PAYLOAD·🇺🇸 United States

Lançado Oct 25, 2025 de Cape Canaveral Space Force Station

Loading…

Próximas Passagens (próximas 24 horas)

TLE

AtualizadoSource: CelesTrak SupGP

Época: Sep 15, 2026, 02:49 UTC

1 66159C 25240P   26258.11784722 -.00027797  00000+0 -82110-3 0  2581
2 66159  53.1580 259.2297 0001371  90.8630 245.8297 15.34410296    18

Acompanhe STARLINK-35586 em tempo real com AllMySat

Download on the App Store